World > North America > United States > Utah

Fish Lake, Utah Regional Weather

Lat: 38.77N, Lon: 112.07W
Wx Zone: UTZ014Web Search

Ads allow us to feed your daily addiction for the world's greatest weather information. We're determined to offer quality sponsors, in the least annoying way possible.

Feedback


°F Click to change Fish Lake hourly weather to Imperial units.Click to change Fish Lake hourly weather to Metric units. °C
Fish Lake Weather Map
UTC Time: 4/14/2021, 05:31
Your Time:

Fish Lake, UT Regional Weather

Expires:202104140600;;522109
ASUS45 KSLC 140510
RWRUT 

UTAH REGIONAL WEATHER ROUNDUP
NATIONAL WEATHER SERVICE SALT LAKE CITY UT
1100 PM MDT TUE APR 13 2021


UTZ013>016-019>022-027-140600-

SOUTHERN UTAH
  
CITY           SKY/WX    TMP DP  RH WIND       PRES   REMARKS
BRYCE CANYON   CLEAR     46  12  25 S13       29.83R                  
CEDAR CITY     CLEAR     58  16  19 S17G29    29.68S                  
MILFORD        MOCLDY    48  14  25 N14       29.69R                  
PANGUITCH        N/A     45  10  24 SE12      29.78S                  
ST GEORGE      PTCLDY    68  25  19 SE15      29.62R                  
HANKSVILLE     PTCLDY    55  28  35 MISG      29.75R                  
KANAB          CLEAR     59  18  20 SW12      29.76S                  
BLANDING         N/A     58  24  27 S18       29.87R                  

$$

REGIONAL REPORTS     COLORADO/ARIZONA
  
CITY           SKY/WX    TMP DP  RH WIND       PRES   REMARKS
CRAIG, CO      LGT SNOW  34  32  92 SW6       29.94R FOG     WCI  29  
GRAND JUNCTION CLOUDY    49  41  74 NE9       29.81F                  
RIFLE, CO      LGT RAIN  45  38  76 CALM      29.89R                  
MONTROSE, CO   CLOUDY    50  30  46 NW5       29.85R                  
CORTEZ, CO     CLOUDY    56  28  34 SE14G32   29.86R                  
COLORADO CITY    N/A     54  21  28 E13       29.76S                  
PAGE, AZ       CLEAR     65  19  17 S9        29.71R                  
GRAND CANYON   PTCLDY    47  22  37 S9        29.87R                  
KINGMAN, AZ    MOCLDY    66  26  22 S18G28    29.72S                  
FLAGSTAFF, AZ  PTCLDY    49  21  33 SW16G26   29.90S                  

$$

REGIONAL REPORTS    NEVADA/IDAHO/WYOMING
  
CITY           SKY/WX    TMP DP  RH WIND       PRES   REMARKS
LAS VEGAS, NV  CLEAR     71  25  17 SW20G29   29.58R                  
ELY, NY        LGT SNOW  32  30  92 N21G28    29.77R FOG     WCI  20  
ELKO, NV       CLOUDY    40  32  73 CALM      29.76F                  
POCATELLO, ID  MOCLDY    38  14  37 NE29G39   29.91R WCI  26          
BURLEY, ID     CLOUDY    43  11  27 E25G38    29.86R                  
EVANSTON, WY   MOCLDY    24  18  77 E28G39    29.89F WCI   7          
ROCK SPRINGS,  CLOUDY    26  11  52 E31G38    30.05S WCI   9          
KEMMERER, WY   LGT SNOW  23  18  80 E22       30.03R WCI   8          

$$
  

SKY/WX - Weather  TMP - Temperature  DP - Dew Point  RH - Relative Humidity
WIND - Wind Direction/Speed PRES - Barometric Pressure VSB - Visibility
WCI - Wind Chill Index E13G22 Wind - East Wind 13 mph/Gusts of 22 mph